Date,TemperatureHighF,TemperatureAvgF,TemperatureLowF,DewpointHighF,DewpointAvgF,DewpointLowF,HumidityHigh,HumidityAvg,HumidityLow,PressureMaxIn,PressureMinIn,WindSpeedMaxMPH,WindSpeedAvgMPH,GustSpeedMaxMPH,PrecipitationSumIn
2013-1-1,51.7,48.7,42.8,50.6,45.7,36.7,96,90,70,30.14,29.96,4,0,5,1.20
2013-1-2,50.9,44.5,39.4,49.8,42.1,37.4,96,91,84,30.17,29.94,15,3,15,0.05
2013-1-3,46.9,39.1,29.9,38.6,35.0,26.9,93,85,69,30.35,30.13,17,3,17,0.00
2013-1-4,53.4,36.0,24.3,32.1,26.2,22.5,94,71,36,30.41,30.32,16,2,17,0.00
2013-1-5,49.5,38.2,23.7,38.7,29.0,21.3,92,72,46,30.43,30.30,7,1,7,0.03
2013-1-6,46.9,41.3,32.6,40.2,37.4,30.4,93,86,73,30.32,30.17,20,4,20,0.01
2013-1-7,54.4,41.7,26.0,34.9,31.3,24.0,93,70,42,30.42,30.27,21,3,21,0.00
2013-1-8,51.7,46.0,36.3,43.0,37.2,30.4,81,72,62,30.45,30.35,17,4,17,0.00
2013-1-9,63.5,55.1,49.8,54.1,49.5,41.5,90,82,69,30.46,30.37,10,1,11,0.00
2013-1-10,58.5,56.9,53.9,54.5,53.3,51.0,90,88,86,30.42,30.41,5,1,5,0.00
2013-1-11,67.5,63.9,60.0,64.5,62.3,58.3,96,95,90,30.24,30.10,8,3,24,0.34
2013-1-12,73.0,65.8,59.2,65.3,61.8,58.1,97,87,72,30.16,30.04,6,1,14,0.01
2013-1-13,71.3,66.0,62.0,63.3,61.3,58.4,93,85,74,30.10,30.00,6,2,16,0.04
2013-1-14,65.9,59.0,49.4,64.4,57.6,48.0,96,95,92,30.12,30.00,5,2,12,0.89
2013-1-15,64.9,59.9,49.7,63.4,58.8,48.6,97,96,95,30.11,29.95,13,2,13,0.81
2013-1-16,65.2,59.3,54.1,64.3,58.0,53.0,97,95,93,29.99,29.89,10,1,11,0.62
2013-1-17,57.2,50.0,36.3,56.0,48.5,34.0,97,94,87,30.25,29.67,29,3,29,1.07
2013-1-18,55.6,40.0,29.6,37.6,30.6,26.7,94,74,35,30.53,30.24,7,1,7,0.01
2013-1-19,54.8,39.4,29.6,34.8,30.6,27.6,93,74,39,30.49,30.27,4,1,10,0.00
2013-1-20,62.6,46.3,29.4,41.9,35.6,27.6,93,70,41,30.26,30.12,18,2,18,0.01
2013-1-21,57.7,43.4,29.0,37.5,30.1,20.5,95,63,41,30.18,30.08,24,4,24,0.00
2013-1-22,43.4,35.9,28.8,19.0,16.0,13.9,60,45,34,30.34,30.16,20,4,20,0.00
2013-1-23,50.2,38.4,27.0,35.0,24.2,14.9,78,57,43,30.40,30.20,20,3,20,0.00
2013-1-24,51.7,43.7,28.6,41.9,28.1,19.0,82,57,30,30.41,30.13,20,4,21,0.00
2013-1-25,37.2,30.7,28.4,34.0,21.1,11.5,93,69,43,30.44,30.19,22,5,22,0.02
2013-1-26,54.5,41.5,31.3,38.7,35.3,28.2,95,80,51,30.32,30.18,14,3,14,0.02
2013-1-27,47.7,42.5,30.6,35.6,33.4,27.8,90,71,61,30.52,30.31,22,6,22,0.00
2013-1-28,51.1,43.9,39.5,46.6,37.2,33.0,94,78,67,30.46,30.31,12,2,12,0.00
2013-1-29,70.9,56.5,39.6,62.3,52.9,38.0,96,88,69,30.31,29.98,11,2,11,0.07
2013-1-30,68.2,59.9,43.0,65.2,57.2,37.9,96,91,82,29.98,29.52,31,6,31,2.46
2013-1-31,49.1,40.1,33.1,37.9,27.7,24.7,82,62,40,30.16,29.74,31,6,31,0.01